Weather History for Beaufort MCAS, SC

Change the Weather History Date:

Friday, September 12, 2014

  Actual Average Record
Temperature  
Mean Temperature 83 °F -  
Max Temperature 91 °F 85 °F 98 °F (1933)
Min Temperature 75 °F 68 °F 54 °F (1956)
Cooling Degree Days 18    
Growing Degree Days 33 (Base 50)    
Moisture  
Dew Point 73 °F    
Average Humidity 75    
Maximum Humidity 91    
Minimum Humidity 52    
Precipitation  
Precipitation 0.00 in - - ()
Sea Level Pressure  
Sea Level Pressure 30.02 in    
Wind  
Wind Speed 3 mph (ENE)    
Max Wind Speed 9 mph    
Max Gust Speed -    
Visibility 10 miles    
Events Thunderstorm    
Averages and records for this station are not official NWS values.
T = Trace of Precipitation, MM = Missing Value Source: NWS Daily Summary

Daily Weather History Graph

Daily Weather History Graph

Search for Another Location

Airport:

Trip Planner

Search our weather history database for the weather conditions in past years. The results will help you decide how hot, cold, wet, or windy it might be!

Date:

Astronomy

Sep. 12, 2014 Rise Set
Actual Time 7:04 AM EDT 7:32 PM EDT
Civil Twilight 6:40 AM EDT 7:57 PM EDT
Nautical Twilight 6:11 AM EDT 8:26 PM EDT
Astronomical Twilight 5:41 AM EDT 8:55 PM EDT
Moon 10:08 PM EDT (9/12) 10:51 AM EDT (9/12)
Length of Visible Light 13h 17m
Length of Day
12h 28m
Waning Gibbous, 83% of the Moon is Illuminated
Sep 12
Waning Gibbous
Sep 15
Last Quarter
Sep 24
New
Oct 1
First Quarter
Oct 8
Full

Hourly Weather History & Observations

Time (EDT) Temp. Heat Index Dew Point Humidity Pressure Visibility Wind Dir Wind Speed Gust Speed Precip Events Conditions
12:56 AM 80.1 °F 84.5 °F 73.9 °F 81% 30.02 in 10.0 mi East 3.5 mph - N/A   Clear
1:56 AM 78.1 °F - 73.9 °F 87% 30.01 in 10.0 mi Calm Calm - N/A   Clear
2:56 AM 78.1 °F - 73.9 °F 87% 30.01 in 10.0 mi Calm Calm - N/A   Clear
3:56 AM 77.0 °F - 73.9 °F 90% 30.01 in 10.0 mi Calm Calm - N/A   Clear
4:56 AM 75.9 °F - 73.0 °F 91% 30.02 in 10.0 mi Calm Calm - N/A   Scattered Clouds
5:56 AM 75.9 °F - 72.0 °F 87% 30.03 in 10.0 mi Calm Calm - N/A   Overcast
6:36 AM 75.0 °F - 72.0 °F 90% 30.03 in 10.0 mi East 3.5 mph - N/A   Scattered Clouds
6:56 AM 75.0 °F - 72.0 °F 90% 30.04 in 10.0 mi Calm Calm - N/A   Scattered Clouds
7:56 AM 77.0 °F - 72.0 °F 84% 30.05 in 10.0 mi Calm Calm - N/A   Scattered Clouds
8:56 AM 80.1 °F 84.2 °F 73.0 °F 79% 30.06 in 10.0 mi East 4.6 mph - N/A   Scattered Clouds
9:56 AM 84.0 °F 88.4 °F 70.0 °F 63% 30.06 in 10.0 mi East 9.2 mph - N/A   Scattered Clouds
10:56 AM 87.1 °F 92.8 °F 71.1 °F 59% 30.06 in 10.0 mi ESE 6.9 mph - N/A   Scattered Clouds
11:56 AM 88.0 °F 94.7 °F 72.0 °F 59% 30.05 in 10.0 mi East 4.6 mph - N/A   Scattered Clouds
12:56 PM 91.0 °F 99.3 °F 73.0 °F 55% 30.04 in 10.0 mi Calm Calm - N/A   Scattered Clouds
1:56 PM 91.0 °F 100.4 °F 73.9 °F 57% 30.02 in 10.0 mi NNE 3.5 mph - N/A   Mostly Cloudy
2:56 PM 91.9 °F 101.3 °F 73.9 °F 55% 29.99 in 10.0 mi NNE 3.5 mph - N/A   Mostly Cloudy
3:56 PM 91.9 °F 99.5 °F 72.0 °F 52% 29.97 in 10.0 mi North 3.5 mph - N/A   Mostly Cloudy
4:56 PM 88.0 °F 95.6 °F 73.0 °F 61% 29.98 in 10.0 mi NE 5.8 mph - N/A   Mostly Cloudy
5:35 PM 87.1 °F 94.5 °F 73.0 °F 63% 29.97 in 10.0 mi NE 3.5 mph - N/A Thunderstorm Mostly Cloudy
5:56 PM 86.0 °F 92.2 °F 72.0 °F 63% 29.98 in 10.0 mi NE 4.6 mph - N/A Thunderstorm Mostly Cloudy
6:27 PM 84.0 °F 90.2 °F 73.0 °F 69% 30.00 in 10.0 mi SSE 4.6 mph - N/A Thunderstorm Thunderstorm
6:56 PM 82.0 °F 87.4 °F 73.0 °F 74% 30.01 in 10.0 mi South 5.8 mph - N/A Thunderstorm Thunderstorm
7:36 PM 81.0 °F 86.2 °F 73.9 °F 79% 30.01 in 10.0 mi SW 4.6 mph - N/A   Mostly Cloudy
7:56 PM 80.1 °F 84.5 °F 73.9 °F 81% 30.02 in 10.0 mi West 4.6 mph - N/A   Mostly Cloudy
8:56 PM 80.1 °F 84.5 °F 73.9 °F 81% 30.04 in 10.0 mi NW 5.8 mph - N/A   Partly Cloudy
9:56 PM 80.1 °F 84.5 °F 73.9 °F 81% 30.04 in 10.0 mi Calm Calm - N/A   Clear
10:56 PM 81.0 °F 87.3 °F 75.9 °F 85% 30.04 in 10.0 mi Calm Calm - N/A   Scattered Clouds
11:56 PM 82.0 °F 90.2 °F 77.0 °F 85% 30.04 in 10.0 mi Calm Calm - N/A   Clear